Content
SEND FEEDBACK

Daily
Averages
Monthly
Summary
United States of America

EARTH CITY, MISSOURI


Home > North America > United States > Missouri
Elevation: 145 meters     Latitude: 38 46N     Longitude: 090 30W

WEATHER
 
SELECT A DAY
Number of Records: 203,490;   Date Range: 1/1/95 - 8/12/14
 
SHARE

PRINT THIS DATA

[ ← Previous Day ]
WEATHER ALMANAC - 6 JANUARY, 2013
[ Next Day → ]
[ °F ]   °C
Weather ElementAverageHighLow
Temperature0.5 °C5 °C (1:51 am)-3.9 °C (11:51 pm)
Dewpoint-5.4 °C-1.1 °C (1:51 am)-7.8 °C (11:51 pm)
Humidity65.6 %75 % (4:51 am)52 % (2:51 pm)
Barometer1025.7 hPa1030.5 hPa (11:51 pm)1019.6 hPa (1:51 am)
Wind Speed17.4 km/h33.3 km/h (12:22 pm)
Wind Gust44.4 km/h (9:51 am)
Weather ElementAverage
Visibility14.8 km
Wind DirectionWSW (238.8 °)

Weather ElementTotal
Precipitation---
Heating Degree Days17.8 (Base 18.3)
Averaged from 25 records on 6 January, 2013
WEATHER CONDITIONS BREAKOUT
WIND DIRECTION BREAKOUT
WEATHER BY HOUR - 6 JANUARY, 2013
[ °F ]   °C
Local TimeTemperatureDewpointHumidityBarometerVisibilityWind DirectionWind SpeedGust SpeedPrecipitationEventsConditions
1:51 AM5 °C-1.1 °C65 %1019.6 hPa16.1 kmWSW (250°)25.9 km/h37 km/hMostly Cloudy
2:51 AM3.9 °C-1.7 °C67 %1020 hPa16.1 kmWest (270°)22.2 km/hPartly Cloudy
3:51 AM2.8 °C-2.2 °C70 %1020 hPa16.1 kmWest (280°)22.2 km/hPartly Cloudy
4:51 AM1.1 °C-2.8 °C75 %1020.3 hPa16.1 kmWest (280°)14.8 km/hScattered Clouds
5:51 AM1.1 °C-3.3 °C73 %1021.3 hPa16.1 kmWNW (290°)16.7 km/hScattered Clouds
5:58 AM1 °C-3 °C75 %1020.7 hPa16.1 kmWNW (290°)24.1 km/h37 km/hMostly Cloudy
6:51 AM0.6 °C-5 °C66 %1022.4 hPa16.1 kmWNW (290°)29.6 km/h38.9 km/hOvercast
7:51 AM0 °C-5.6 °C66 %1023.4 hPa16.1 kmWNW (300°)14.8 km/h37 km/hOvercast
8:51 AM0.6 °C-5.6 °C64 %1024.4 hPa16.1 kmWNW (290°)31.5 km/h38.9 km/hOvercast
9:51 AM0.6 °C-5.6 °C64 %1025.4 hPa16.1 kmWNW (300°)22.2 km/h44.4 km/hOvercast
10:51 AM0.6 °C-5.6 °C64 %1026.1 hPa11.3 kmWNW (290°)27.8 km/hOvercast
11:51 AM1.1 °C-5.6 °C61 %1026.1 hPa11.3 kmWNW (290°)27.8 km/h42.6 km/hMostly Cloudy
12:22 PM2 °C-6 °C56 %1025.1 hPa9.7 kmWNW (290°)33.3 km/hHaze
12:51 PM1.7 °C-5.6 °C59 %1025.7 hPa9.7 kmWNW (290°)22.2 km/hHaze
1:51 PM2.2 °C-5.6 °C57 %1026.4 hPa11.3 kmWNW (300°)24.1 km/h37 km/hPartly Cloudy
2:51 PM2.8 °C-6.1 °C52 %1027.1 hPa16.1 kmNW (310°)18.5 km/hPartly Cloudy
3:51 PM2.2 °C-6.1 °C55 %1027.8 hPa12.9 kmWest (280°)20.4 km/hPartly Cloudy
4:51 PM0.6 °C-6.7 °C59 %1028.4 hPa16.1 kmWNW (290°)13 km/hPartly Cloudy
5:51 PM-1.1 °C-7.2 °C64 %1029.5 hPa16.1 kmWNW (290°)9.3 km/hClear
6:51 PM-1.7 °C-7.2 °C67 %1029.8 hPa16.1 kmWest (280°)7.4 km/hClear
7:51 PM-2.8 °C-7.2 °C72 %1029.8 hPa16.1 kmCalmClear
8:51 PM-1.7 °C-7.2 °C67 %1029.8 hPa16.1 kmCalmClear
9:51 PM-2.8 °C-7.2 °C72 %1029.8 hPa16.1 kmCalmClear
10:51 PM-3.3 °C-7.2 °C75 %1030.1 hPa16.1 kmSW (220°)5.6 km/hClear
11:51 PM-3.9 °C-7.8 °C75 %1030.5 hPa16.1 kmCalmClear
Hourly data recorded from KSTL, located 0 kilometers away from Earth City, Missouri







STORIES FROM OUR PARTNERS